QPF
0.00 0.01 0.01 0.02 0.02 0.02 0.02 0.03 0.03 0.02 0.03 0.03 0.03 0.03 0.03 0.02 0.02 0.03 0.04 0.04 0.04 0.04 0.05 0.05 0.05 0.06 0.08 0.08 0.09 0.09 0.07 0.08 0.07 0.05 0.04 0.03 0.04 0.05 0.04 0.03 0.02 0.02 0.02
0.00 0.00 0.01 0.01 0.01 0.01 0.01 0.02 0.02 0.02 0.02 0.02 0.03 0.03 0.03 0.03 0.03 0.03 0.04 0.04 0.05 0.05 0.04 0.05 0.05 0.07 0.08 0.08 0.09 0.10 0.09 0.08 0.08 0.07 0.07 0.06 0.06 0.06 0.05 0.05 0.04 0.02 0.02
0.01 0.01 0.01 0.01 0.01 0.01 0.01 0.01 0.02 0.02 0.02 0.02 0.02 0.03 0.03 0.03 0.02 0.03 0.03 0.04 0.04 0.04 0.04 0.04 0.04 0.05 0.06 0.07 0.08 0.08 0.09 0.08 0.07 0.06 0.06 0.07 0.07 0.07 0.08 0.08 0.06 0.04 0.02
0.01 0.01 0.01 0.01 0.01 0.01 0.01 0.01 0.02 0.02 0.02 0.02 0.02 0.02 0.02 0.02 0.02 0.02 0.03 0.03 0.04 0.03 0.03 0.03 0.03 0.04 0.04 0.05 0.06 0.06 0.07 0.08 0.08 0.07 0.07 0.06 0.06 0.07 0.09 0.10 0.10 0.06 0.04
0.01 0.01 0.01 0.01 0.01 0.01 0.02 0.02 0.02 0.03 0.03 0.03 0.02 0.02 0.02 0.02 0.02 0.02 0.03 0.03 0.04 0.04 0.04 0.04 0.03 0.04 0.05 0.05 0.05 0.05 0.06 0.06 0.07 0.07 0.06 0.06 0.06 0.06 0.08 0.08 0.09 0.07 0.05
0.01 0.01 0.01 0.02 0.02 0.02 0.02 0.03 0.03 0.03 0.03 0.03 0.02 0.02 0.02 0.02 0.03 0.03 0.03 0.03 0.03 0.04 0.04 0.04 0.04 0.04 0.04 0.04 0.04 0.04 0.04 0.04 0.05 0.06 0.06 0.04 0.03 0.03 0.04 0.06 0.08 0.10 0.09
0.01 0.01 0.01 0.02 0.02 0.02 0.03 0.03 0.04 0.03 0.03 0.02 0.02 0.02 0.02 0.03 0.03 0.03 0.04 0.03 0.03 0.04 0.04 0.03 0.03 0.03 0.04 0.04 0.04 0.04 0.03 0.03 0.04 0.04 0.05 0.04 0.03 0.03 0.03 0.04 0.06 0.07 0.05
0.01 0.01 0.01 0.01 0.02 0.03 0.03 0.03 0.03 0.03 0.03 0.03 0.02 0.02 0.03 0.03 0.03 0.03 0.04 0.04 0.05 0.05 0.05 0.04 0.04 0.04 0.04 0.04 0.04 0.03 0.03 0.03 0.03 0.03 0.03 0.03 0.03 0.03 0.04 0.04 0.05 0.07 0.06
0.02 0.01 0.01 0.02 0.02 0.03 0.03 0.03 0.03 0.03 0.04 0.03 0.03 0.03 0.03 0.03 0.03 0.03 0.03 0.03 0.03 0.04 0.04 0.04 0.04 0.05 0.04 0.04 0.04 0.03 0.02 0.02 0.02 0.02 0.03 0.03 0.03 0.04 0.04 0.06 0.07 0.07 0.07
0.03 0.02 0.03 0.03 0.03 0.02 0.03 0.04 0.04 0.04 0.05 0.04 0.04 0.04 0.03 0.03 0.03 0.03 0.03 0.02 0.03 0.03 0.04 0.04 0.04 0.04 0.04 0.04 0.04 0.03 0.03 0.02 0.01 0.02 0.02 0.03 0.03 0.03 0.04 0.06 0.07 0.08 0.06
0.04 0.02 0.02 0.03 0.04 0.04 0.03 0.03 0.04 0.04 0.04 0.04 0.03 0.03 0.03 0.03 0.03 0.03 0.03 0.03 0.03 0.03 0.02 0.02 0.02 0.03 0.03 0.03 0.04 0.04 0.03 0.02 0.02 0.02 0.02 0.03 0.03 0.03 0.04 0.05 0.05 0.06 0.06
0.03 0.03 0.02 0.02 0.02 0.03 0.04 0.05 0.05 0.04 0.04 0.03 0.03 0.03 0.04 0.04 0.04 0.03 0.03 0.03 0.03 0.02 0.02 0.02 0.02 0.02 0.02 0.02 0.03 0.04 0.04 0.03 0.03 0.03 0.03 0.04 0.03 0.03 0.03 0.04 0.04 0.05 0.05
0.03 0.03 0.03 0.02 0.02 0.02 0.03 0.03 0.04 0.04 0.03 0.03 0.03 0.03 0.03 0.03 0.03 0.03 0.02 0.02 0.02 0.02 0.02 0.02 0.02 0.02 0.02 0.03 0.03 0.03 0.04 0.04 0.03 0.03 0.04 0.04 0.04 0.03 0.04 0.04 0.04 0.05 0.05
0.03 0.03 0.03 0.03 0.03 0.03 0.03 0.03 0.03 0.03 0.03 0.03 0.03 0.03 0.03 0.02 0.02 0.02 0.02 0.02 0.02 0.02 0.01 0.01 0.02 0.02 0.03 0.03 0.03 0.03 0.03 0.04 0.04 0.03 0.03 0.03 0.04 0.04 0.04 0.04 0.05 0.06 0.06
0.02 0.03 0.03 0.03 0.02 0.03 0.03 0.03 0.03 0.03 0.03 0.03 0.03 0.03 0.03 0.02 0.02 0.02 0.03 0.03 0.02 0.02 0.01 0.02 0.02 0.02 0.03 0.03 0.03 0.03 0.03 0.03 0.04 0.04 0.03 0.04 0.04 0.05 0.05 0.04 0.05 0.05 0.06
0.03 0.03 0.03 0.03 0.02 0.03 0.03 0.03 0.03 0.02 0.02 0.02 0.02 0.03 0.03 0.02 0.03 0.03 0.02 0.02 0.02 0.02 0.02 0.02 0.02 0.01 0.02 0.02 0.02 0.02 0.02 0.02 0.03 0.04 0.04 0.04 0.04 0.05 0.05 0.04 0.04 0.05 0.05
0.03 0.03 0.03 0.03 0.02 0.02 0.03 0.02 0.02 0.03 0.02 0.02 0.02 0.02 0.03 0.03 0.03 0.03 0.02 0.02 0.02 0.01 0.02 0.02 0.01 0.01 0.01 0.02 0.02 0.02 0.02 0.02 0.02 0.03 0.04 0.04 0.04 0.04 0.05 0.05 0.05 0.04 0.04
0.02 0.02 0.02 0.02 0.02 0.02 0.02 0.02 0.02 0.02 0.02 0.03 0.03 0.02 0.02 0.02 0.02 0.02 0.02 0.02 0.01 0.01 0.01 0.01 0.01 0.01 0.02 0.02 0.02 0.02 0.02 0.03 0.03 0.03 0.03 0.04 0.04 0.04 0.05 0.05 0.05 0.05 0.04
0.02 0.02 0.02 0.02 0.02 0.02 0.02 0.02 0.02 0.02 0.02 0.02 0.02 0.02 0.02 0.02 0.02 0.02 0.02 0.01 0.01 0.01 0.01 0.01 0.01 0.01 0.02 0.02 0.02 0.02 0.03 0.03 0.03 0.03 0.04 0.04 0.04 0.05 0.05 0.04 0.04 0.04 0.05
0.01 0.01 0.02 0.02 0.03 0.02 0.02 0.02 0.02 0.02 0.02 0.01 0.01 0.01 0.02 0.02 0.01 0.01 0.02 0.01 0.01 0.01 0.01 0.02 0.02 0.02 0.02 0.02 0.02 0.03 0.03 0.03 0.03 0.03 0.04 0.04 0.04 0.04 0.04 0.04 0.04 0.04 0.05
0.02 0.02 0.02 0.02 0.02 0.02 0.02 0.02 0.02 0.02 0.02 0.01 0.01 0.01 0.02 0.02 0.02 0.01 0.01 0.01 0.01 0.01 0.01 0.03 0.03 0.02 0.02 0.02 0.02 0.02 0.03 0.03 0.03 0.03 0.04 0.04 0.04 0.04 0.04 0.04 0.04 0.04 0.04
0.02 0.02 0.02 0.02 0.02 0.02 0.02 0.01 0.01 0.02 0.02 0.02 0.01 0.01 0.02 0.02 0.02 0.01 0.01 0.01 0.01 0.01 0.02 0.03 0.03 0.02 0.02 0.02 0.02 0.03 0.03 0.03 0.04 0.03 0.04 0.04 0.04 0.04 0.04 0.04 0.04 0.04 0.04
0.02 0.02 0.01 0.01 0.01 0.01 0.01 0.01 0.01 0.01 0.02 0.01 0.01 0.01 0.01 0.01 0.01 0.01 0.01 0.01 0.01 0.01 0.02 0.03 0.03 0.03 0.02 0.02 0.02 0.03 0.03 0.03 0.04 0.04 0.04 0.04 0.04 0.04 0.04 0.04 0.04 0.04 0.05
0.02 0.02 0.01 0.01 0.01 0.01 0.01 0.01 0.01 0.01 0.01 0.01 0.01 0.01 0.01 0.01 0.01 0.01 0.01 0.01 0.01 0.01 0.02 0.03 0.03 0.03 0.03 0.02 0.02 0.02 0.03 0.03 0.03 0.04 0.04 0.04 0.04 0.04 0.04 0.05 0.04 0.04 0.04
0.02 0.01 0.01 0.01 0.01 0.01 0.01 0.01 0.01 0.01 0.01 0.01 0.01 0.01 0.01 0.01 0.01 0.01 0.01 0.01 0.01 0.01 0.01 0.02 0.03 0.03 0.03 0.03 0.02 0.02 0.03 0.03 0.03 0.03 0.04 0.04 0.04 0.04 0.04 0.04 0.05 0.04 0.04
0.02 0.01 0.01 0.01 0.01 0.01 0.01 0.01 0.01 0.01 0.00 0.01 0.01 0.01 0.01 0.01 0.01 0.01 0.01 0.01 0.01 0.01 0.01 0.02 0.02 0.03 0.03 0.03 0.02 0.02 0.02 0.03 0.03 0.03 0.03 0.03 0.03 0.03 0.04 0.04 0.04 0.04 0.04
MSLP
1006.71 1006.56 1006.46 1006.44 1006.49 1006.62 1006.85 1007.17 1007.58 1008.07 1008.61 1009.19 1009.78 1010.36 1010.93 1011.49 1012.07 1012.67 1013.31 1013.99 1014.71 1015.43 1016.13 1016.78 1017.33 1017.79 1018.14 1018.42 1018.64 1018.87 1019.14 1019.47 1019.89 1020.36 1020.87 1021.37 1021.80 1022.12 1022.31 1022.36 1022.27 1022.08 1021.82
1007.08 1006.85 1006.67 1006.55 1006.52 1006.60 1006.78 1007.07 1007.48 1007.96 1008.50 1009.07 1009.64 1010.20 1010.75 1011.30 1011.86 1012.46 1013.11 1013.81 1014.55 1015.31 1016.03 1016.70 1017.27 1017.74 1018.09 1018.36 1018.58 1018.81 1019.07 1019.42 1019.84 1020.34 1020.88 1021.41 1021.87 1022.22 1022.44 1022.51 1022.43 1022.25 1022.00
1007.30 1007.04 1006.80 1006.62 1006.52 1006.54 1006.69 1006.96 1007.35 1007.82 1008.35 1008.91 1009.47 1010.01 1010.54 1011.07 1011.62 1012.21 1012.87 1013.58 1014.34 1015.13 1015.89 1016.59 1017.19 1017.68 1018.06 1018.35 1018.59 1018.83 1019.11 1019.46 1019.90 1020.40 1020.95 1021.49 1021.96 1022.33 1022.56 1022.64 1022.59 1022.42 1022.18
1007.41 1007.12 1006.85 1006.63 1006.49 1006.47 1006.59 1006.85 1007.22 1007.69 1008.22 1008.77 1009.32 1009.84 1010.35 1010.86 1011.39 1011.97 1012.61 1013.33 1014.11 1014.91 1015.70 1016.44 1017.08 1017.62 1018.04 1018.38 1018.66 1018.93 1019.23 1019.60 1020.04 1020.55 1021.09 1021.63 1022.09 1022.46 1022.70 1022.79 1022.75 1022.61 1022.40
1007.44 1007.15 1006.87 1006.62 1006.46 1006.42 1006.52 1006.77 1007.15 1007.62 1008.15 1008.70 1009.24 1009.75 1010.24 1010.73 1011.23 1011.79 1012.42 1013.12 1013.89 1014.70 1015.51 1016.28 1016.97 1017.56 1018.04 1018.43 1018.77 1019.10 1019.44 1019.83 1020.29 1020.79 1021.32 1021.84 1022.30 1022.65 1022.89 1022.99 1022.98 1022.86 1022.69
1007.45 1007.17 1006.88 1006.63 1006.46 1006.41 1006.52 1006.77 1007.16 1007.64 1008.19 1008.75 1009.29 1009.79 1010.27 1010.74 1011.22 1011.75 1012.34 1013.02 1013.77 1014.57 1015.39 1016.18 1016.90 1017.55 1018.09 1018.56 1018.97 1019.35 1019.75 1020.18 1020.65 1021.16 1021.68 1022.17 1022.61 1022.95 1023.18 1023.30 1023.31 1023.23 1023.10
1007.51 1007.24 1006.95 1006.70 1006.53 1006.50 1006.61 1006.89 1007.29 1007.80 1008.36 1008.94 1009.49 1010.00 1010.48 1010.93 1011.38 1011.88 1012.44 1013.08 1013.80 1014.58 1015.39 1016.19 1016.95 1017.64 1018.25 1018.79 1019.27 1019.73 1020.18 1020.66 1021.15 1021.67 1022.18 1022.65 1023.07 1023.40 1023.63 1023.75 1023.78 1023.74 1023.65
1007.65 1007.39 1007.12 1006.88 1006.73 1006.71 1006.85 1007.15 1007.58 1008.11 1008.70 1009.30 1009.87 1010.39 1010.86 1011.31 1011.75 1012.22 1012.75 1013.35 1014.04 1014.79 1015.59 1016.39 1017.16 1017.89 1018.56 1019.16 1019.72 1020.25 1020.76 1021.28 1021.81 1022.33 1022.84 1023.30 1023.70 1024.02 1024.24 1024.36 1024.41 1024.40 1024.34
1007.92 1007.68 1007.42 1007.20 1007.07 1007.08 1007.25 1007.57 1008.03 1008.59 1009.19 1009.81 1010.39 1010.93 1011.41 1011.85 1012.28 1012.74 1013.25 1013.83 1014.49 1015.22 1016.00 1016.79 1017.59 1018.34 1019.05 1019.72 1020.34 1020.92 1021.49 1022.06 1022.61 1023.15 1023.65 1024.11 1024.49 1024.79 1025.01 1025.13 1025.19 1025.19 1025.15
1008.31 1008.09 1007.85 1007.67 1007.57 1007.61 1007.80 1008.15 1008.63 1009.20 1009.82 1010.44 1011.03 1011.58 1012.06 1012.51 1012.95 1013.41 1013.91 1014.48 1015.13 1015.85 1016.62 1017.42 1018.21 1018.99 1019.74 1020.44 1021.11 1021.75 1022.36 1022.96 1023.53 1024.08 1024.59 1025.03 1025.41 1025.69 1025.89 1026.02 1026.07 1026.07 1026.05
1008.80 1008.60 1008.40 1008.25 1008.19 1008.27 1008.49 1008.86 1009.35 1009.92 1010.54 1011.16 1011.75 1012.29 1012.78 1013.24 1013.69 1014.16 1014.68 1015.26 1015.92 1016.64 1017.42 1018.22 1019.03 1019.83 1020.59 1021.33 1022.02 1022.69 1023.33 1023.95 1024.54 1025.10 1025.60 1026.04 1026.40 1026.67 1026.86 1026.97 1027.02 1027.02 1026.99
1009.34 1009.18 1009.02 1008.91 1008.90 1009.02 1009.27 1009.66 1010.15 1010.71 1011.31 1011.91 1012.49 1013.02 1013.51 1013.98 1014.45 1014.95 1015.50 1016.12 1016.80 1017.55 1018.35 1019.17 1019.99 1020.80 1021.59 1022.33 1023.04 1023.72 1024.38 1025.00 1025.60 1026.15 1026.65 1027.08 1027.43 1027.69 1027.87 1027.97 1028.01 1028.00 1027.96
1009.88 1009.75 1009.65 1009.60 1009.64 1009.80 1010.09 1010.49 1010.98 1011.53 1012.10 1012.67 1013.22 1013.74 1014.23 1014.71 1015.21 1015.75 1016.34 1017.01 1017.74 1018.54 1019.37 1020.21 1021.06 1021.88 1022.67 1023.42 1024.13 1024.81 1025.46 1026.08 1026.67 1027.22 1027.71 1028.13 1028.47 1028.73 1028.90 1029.00 1029.03 1029.02 1028.97
1010.36 1010.28 1010.23 1010.24 1010.35 1010.56 1010.88 1011.30 1011.79 1012.33 1012.87 1013.41 1013.93 1014.43 1014.92 1015.42 1015.95 1016.54 1017.19 1017.92 1018.71 1019.56 1020.43 1021.32 1022.19 1023.02 1023.81 1024.55 1025.26 1025.92 1026.56 1027.17 1027.75 1028.28 1028.77 1029.19 1029.53 1029.79 1029.97 1030.07 1030.11 1030.09 1030.05
1010.75 1010.72 1010.73 1010.81 1010.98 1011.25 1011.62 1012.07 1012.57 1013.09 1013.62 1014.14 1014.63 1015.12 1015.61 1016.13 1016.70 1017.34 1018.05 1018.84 1019.71 1020.61 1021.54 1022.46 1023.34 1024.19 1024.98 1025.71 1026.40 1027.05 1027.67 1028.26 1028.82 1029.35 1029.83 1030.25 1030.60 1030.88 1031.07 1031.18 1031.23 1031.23 1031.19
1011.05 1011.07 1011.14 1011.28 1011.52 1011.86 1012.28 1012.77 1013.29 1013.82 1014.34 1014.85 1015.34 1015.83 1016.33 1016.88 1017.49 1018.18 1018.96 1019.81 1020.74 1021.69 1022.66 1023.61 1024.52 1025.37 1026.15 1026.87 1027.54 1028.16 1028.76 1029.34 1029.89 1030.41 1030.89 1031.33 1031.69 1031.99 1032.20 1032.34 1032.41 1032.43 1032.40
1011.29 1011.35 1011.48 1011.70 1012.01 1012.41 1012.89 1013.42 1013.98 1014.53 1015.07 1015.59 1016.09 1016.60 1017.13 1017.71 1018.37 1019.11 1019.94 1020.85 1021.81 1022.81 1023.81 1024.77 1025.68 1026.53 1027.30 1028.00 1028.65 1029.25 1029.83 1030.39 1030.93 1031.45 1031.94 1032.39 1032.77 1033.09 1033.33 1033.50 1033.60 1033.63 1033.61
1011.52 1011.63 1011.82 1012.09 1012.47 1012.94 1013.48 1014.07 1014.67 1015.26 1015.84 1016.39 1016.92 1017.46 1018.03 1018.66 1019.36 1020.14 1021.01 1021.95 1022.95 1023.96 1024.96 1025.93 1026.83 1027.65 1028.40 1029.07 1029.70 1030.28 1030.84 1031.38 1031.92 1032.44 1032.94 1033.39 1033.80 1034.14 1034.41 1034.60 1034.72 1034.78 1034.77
1011.79 1011.95 1012.19 1012.53 1012.97 1013.51 1014.11 1014.75 1015.40 1016.04 1016.67 1017.27 1017.85 1018.44 1019.05 1019.72 1020.46 1021.27 1022.17 1023.12 1024.11 1025.12 1026.10 1027.04 1027.90 1028.69 1029.41 1030.05 1030.64 1031.20 1031.74 1032.27 1032.80 1033.32 1033.82 1034.29 1034.71 1035.07 1035.36 1035.57 1035.71 1035.78 1035.78
1012.11 1012.34 1012.64 1013.05 1013.55 1014.14 1014.79 1015.49 1016.19 1016.89 1017.57 1018.22 1018.86 1019.51 1020.17 1020.88 1021.65 1022.48 1023.37 1024.31 1025.28 1026.25 1027.19 1028.07 1028.88 1029.62 1030.28 1030.88 1031.44 1031.97 1032.49 1033.01 1033.53 1034.04 1034.55 1035.02 1035.45 1035.82 1036.12 1036.35 1036.49 1036.57 1036.58
1012.51 1012.80 1013.18 1013.64 1014.20 1014.84 1015.55 1016.29 1017.05 1017.79 1018.53 1019.24 1019.93 1020.63 1021.33 1022.08 1022.86 1023.69 1024.57 1025.48 1026.39 1027.30 1028.16 1028.97 1029.72 1030.39 1031.00 1031.55 1032.06 1032.56 1033.06 1033.56 1034.07 1034.58 1035.08 1035.55 1035.98 1036.35 1036.65 1036.88 1037.03 1037.11 1037.13
1012.93 1013.31 1013.76 1014.29 1014.90 1015.59 1016.34 1017.12 1017.92 1018.71 1019.49 1020.25 1020.99 1021.73 1022.47 1023.23 1024.02 1024.84 1025.68 1026.54 1027.39 1028.21 1028.99 1029.72 1030.38 1030.98 1031.52 1032.02 1032.50 1032.96 1033.43 1033.92 1034.41 1034.91 1035.40 1035.87 1036.29 1036.66 1036.96 1037.19 1037.34 1037.43 1037.45
1013.32 1013.80 1014.33 1014.92 1015.59 1016.31 1017.10 1017.91 1018.74 1019.57 1020.38 1021.18 1021.96 1022.73 1023.50 1024.27 1025.05 1025.84 1026.64 1027.43 1028.20 1028.95 1029.64 1030.28 1030.86 1031.39 1031.87 1032.32 1032.75 1033.19 1033.64 1034.10 1034.58 1035.06 1035.54 1036.00 1036.41 1036.77 1037.07 1037.30 1037.45 1037.55 1037.58
1013.62 1014.19 1014.80 1015.46 1016.17 1016.94 1017.75 1018.59 1019.44 1020.29 1021.13 1021.96 1022.76 1023.55 1024.33 1025.10 1025.87 1026.63 1027.38 1028.11 1028.82 1029.48 1030.10 1030.66 1031.17 1031.64 1032.07 1032.47 1032.88 1033.28 1033.71 1034.15 1034.61 1035.08 1035.55 1035.99 1036.40 1036.75 1037.05 1037.27 1037.44 1037.54 1037.59
1013.78 1014.44 1015.12 1015.83 1016.59 1017.39 1018.23 1019.08 1019.95 1020.82 1021.68 1022.52 1023.35 1024.15 1024.93 1025.70 1026.45 1027.18 1027.89 1028.58 1029.23 1029.83 1030.39 1030.89 1031.35 1031.77 1032.16 1032.54 1032.91 1033.30 1033.70 1034.12 1034.57 1035.02 1035.47 1035.90 1036.29 1036.64 1036.93 1037.16 1037.33 1037.44 1037.50
1013.81 1014.53 1015.27 1016.03 1016.82 1017.65 1018.50 1019.38 1020.26 1021.14 1022.01 1022.86 1023.69 1024.50 1025.29 1026.05 1026.79 1027.51 1028.19 1028.84 1029.45 1030.02 1030.54 1031.01 1031.43 1031.83 1032.19 1032.55 1032.90 1033.26 1033.64 1034.04 1034.46 1034.89 1035.31 1035.72 1036.10 1036.43 1036.72 1036.95 1037.12 1037.24 1037.31
Thickness
5423 5422 5422 5421 5421 5421 5421 5422 5423 5424 5425 5426 5427 5427 5427 5428 5428 5428 5428 5429 5429 5429 5430 5430 5430 5431 5431 5431 5431 5432 5432 5432 5434 5438 5436 5436 5435 5434 5432 5431 5430 5430 5430
5411 5409 5409 5408 5408 5408 5408 5408 5409 5411 5412 5413 5413 5414 5414 5415 5416 5416 5416 5416 5417 5417 5417 5418 5418 5419 5418 5419 5419 5419 5419 5420 5420 5423 5425 5424 5423 5423 5422 5421 5421 5421 5421
5399 5397 5396 5396 5395 5395 5395 5396 5396 5398 5399 5399 5400 5400 5401 5402 5403 5404 5404 5405 5405 5406 5406 5406 5406 5406 5406 5406 5407 5407 5407 5408 5407 5408 5411 5411 5410 5410 5410 5411 5410 5411 5411
5387 5386 5385 5384 5384 5383 5382 5382 5383 5384 5385 5386 5387 5387 5388 5389 5390 5391 5392 5393 5393 5393 5393 5394 5394 5394 5394 5394 5395 5395 5395 5395 5395 5395 5397 5397 5396 5397 5396 5397 5399 5400 5400
5376 5375 5374 5372 5371 5370 5370 5369 5369 5370 5372 5373 5374 5375 5375 5376 5377 5378 5379 5380 5380 5380 5380 5381 5382 5382 5382 5382 5382 5382 5382 5382 5382 5382 5383 5384 5384 5384 5385 5386 5387 5389 5389
5365 5364 5362 5361 5359 5358 5357 5357 5356 5357 5358 5359 5360 5361 5362 5363 5365 5366 5366 5367 5367 5367 5368 5369 5368 5369 5369 5369 5369 5369 5369 5369 5369 5369 5371 5371 5373 5373 5374 5374 5374 5376 5378
5354 5352 5351 5349 5348 5346 5345 5344 5344 5344 5345 5345 5347 5347 5349 5350 5351 5352 5352 5352 5353 5353 5354 5355 5355 5355 5355 5355 5356 5356 5356 5356 5357 5357 5358 5360 5360 5362 5361 5362 5362 5363 5365
5343 5341 5339 5337 5336 5334 5333 5333 5332 5332 5332 5333 5334 5335 5335 5337 5338 5338 5339 5338 5338 5338 5339 5340 5341 5342 5341 5342 5343 5344 5344 5344 5345 5345 5348 5349 5348 5348 5349 5350 5350 5351 5353
5333 5331 5328 5326 5324 5323 5322 5321 5320 5319 5319 5320 5321 5322 5322 5323 5324 5325 5325 5324 5324 5325 5325 5326 5326 5327 5329 5330 5331 5331 5332 5332 5332 5333 5335 5335 5336 5337 5336 5336 5337 5338 5341
5324 5321 5318 5316 5314 5312 5311 5310 5308 5307 5308 5308 5309 5309 5309 5310 5311 5311 5311 5311 5311 5312 5312 5312 5313 5314 5316 5317 5317 5318 5319 5320 5320 5321 5322 5323 5324 5324 5324 5324 5325 5325 5326
5312 5310 5307 5306 5304 5302 5300 5298 5296 5295 5295 5294 5295 5296 5296 5297 5298 5299 5299 5299 5299 5299 5299 5299 5300 5301 5303 5304 5305 5305 5307 5307 5307 5307 5309 5311 5312 5313 5313 5313 5313 5313 5314
5301 5299 5296 5294 5292 5291 5289 5287 5285 5283 5282 5282 5283 5283 5284 5285 5285 5286 5287 5287 5287 5287 5287 5287 5288 5290 5291 5292 5292 5293 5293 5293 5294 5294 5296 5298 5300 5301 5302 5302 5303 5303 5304
5290 5288 5286 5283 5281 5280 5278 5276 5274 5272 5272 5272 5272 5273 5273 5273 5273 5275 5275 5276 5275 5275 5275 5276 5277 5278 5279 5279 5279 5280 5279 5279 5281 5282 5284 5286 5287 5288 5289 5290 5291 5292 5294
5280 5278 5276 5273 5271 5269 5267 5266 5265 5264 5263 5262 5262 5262 5262 5262 5263 5264 5264 5264 5264 5264 5264 5264 5265 5265 5265 5265 5266 5266 5266 5266 5267 5269 5271 5272 5273 5275 5276 5277 5279 5281 5282
5270 5268 5265 5263 5261 5258 5257 5256 5256 5257 5257 5256 5255 5254 5253 5254 5255 5256 5255 5255 5254 5254 5253 5252 5252 5252 5251 5251 5252 5252 5253 5253 5254 5255 5257 5259 5260 5262 5264 5265 5266 5267 5268
5260 5258 5255 5253 5250 5248 5247 5246 5246 5247 5248 5247 5247 5246 5246 5246 5246 5246 5246 5246 5245 5244 5242 5241 5240 5239 5239 5238 5238 5239 5239 5240 5241 5242 5243 5244 5246 5248 5251 5253 5254 5254 5256
5250 5248 5245 5242 5240 5238 5237 5236 5235 5236 5236 5236 5236 5236 5236 5236 5235 5235 5235 5235 5233 5232 5228 5227 5227 5226 5226 5225 5225 5226 5227 5227 5227 5228 5230 5231 5232 5235 5237 5240 5241 5242 5244
5239 5237 5234 5232 5230 5228 5227 5226 5225 5224 5224 5223 5224 5224 5224 5225 5225 5224 5223 5222 5219 5216 5214 5213 5213 5213 5213 5213 5213 5213 5213 5214 5214 5215 5216 5217 5218 5221 5224 5226 5228 5230 5232
5229 5227 5224 5222 5220 5218 5216 5215 5213 5212 5211 5211 5211 5211 5212 5213 5212 5212 5211 5208 5206 5204 5203 5202 5201 5201 5201 5200 5200 5200 5200 5201 5201 5202 5203 5204 5205 5207 5210 5214 5215 5217 5219
5219 5218 5215 5213 5210 5208 5206 5205 5203 5202 5201 5201 5201 5201 5201 5201 5200 5199 5197 5196 5195 5194 5193 5192 5191 5190 5189 5189 5189 5188 5188 5189 5189 5190 5191 5192 5193 5195 5198 5201 5203 5205 5206
5210 5208 5206 5203 5201 5199 5197 5195 5193 5192 5191 5191 5191 5191 5194 5193 5191 5190 5188 5187 5186 5185 5184 5184 5182 5181 5180 5179 5178 5178 5178 5178 5178 5179 5179 5180 5181 5183 5186 5189 5192 5193 5194
5201 5199 5196 5194 5192 5189 5187 5185 5184 5183 5182 5182 5182 5182 5184 5183 5182 5181 5180 5179 5178 5177 5177 5176 5175 5174 5172 5171 5170 5169 5169 5169 5169 5168 5169 5169 5170 5172 5175 5177 5179 5181 5182
5192 5190 5187 5184 5182 5180 5177 5176 5175 5174 5173 5173 5173 5172 5172 5172 5172 5172 5171 5171 5170 5170 5170 5169 5168 5167 5166 5164 5163 5162 5162 5161 5161 5160 5160 5160 5161 5163 5164 5167 5168 5170 5171
5182 5180 5178 5175 5173 5170 5169 5167 5166 5166 5165 5165 5164 5164 5164 5163 5163 5163 5163 5163 5163 5163 5163 5162 5162 5161 5160 5159 5157 5155 5154 5154 5153 5153 5152 5153 5153 5154 5155 5156 5158 5159 5161
5172 5171 5169 5167 5165 5162 5160 5159 5158 5157 5157 5157 5156 5156 5156 5155 5155 5155 5156 5156 5156 5156 5157 5156 5156 5156 5155 5153 5151 5150 5149 5148 5147 5146 5146 5145 5146 5146 5147 5148 5149 5151 5151
5163 5162 5160 5159 5157 5155 5153 5152 5151 5150 5150 5149 5149 5148 5148 5147 5147 5148 5148 5148 5149 5150 5150 5150 5150 5149 5149 5147 5146 5145 5144 5143 5142 5142 5140 5140 5139 5139 5140 5140 5141 5143 5143